Regional Weather Roundup
Issued by NWS

Home | Current Version | Previous Version | Graphics & Text | Print | Product List | Glossary On
Versions: 1 2 3 4 5 6 7 8 9 10 11 12 13 14 15 16 17 18 19 20 21 22 23 24 25 26 27 28 29 30 31 32 33 34 35 36 37 38 39 40 41 42 43 44 45 46 47 48 49 50
000
ASUS43 KLOT 280208
RWRIL

ILLINOIS REGIONAL WEATHER ROUNDUP
NATIONAL WEATHER SERVICE CHICAGO/ROMEOVILLE IL
900 PM CDT FRI MAY 27 2016

NOTE: "FAIR" INDICATES FEW OR NO CLOUDS BELOW 12,000 FEET WITH NO
SIGNIFICANT WEATHER AND/OR OBSTRUCTIONS TO VISIBILITY.

* THESE STATIONS ARE NOT UNDER NWS QUALITY CONTROL. THEY ALSO MAY NOT
  REPORT WEATHER SUCH AS PRECIPITATION OR FOG.

ILZ001-002-007-009-015-016-024-280300-
NORTHWEST ILLINOIS

CITY           SKY/WX    TMP DP  RH WIND       PRES   REMARKS
MOLINE         MOCLDY    75  67  76 SE9       29.75R
STERLING*      PTCLDY    73  68  84 CALM      29.79S
SAVANNA*       CLEAR     71  68  89 SE7       29.76S
$$

ILZ003-004-008-010-011-017-018-280300-
NORTH CENTRAL ILLINOIS

CITY           SKY/WX    TMP DP  RH WIND       PRES   REMARKS
ROCKFORD       MOCLDY    75  66  73 S13       29.82S
FREEPORT*      MOCLDY    70  66  85 SE5       29.80S
ROCHELLE*      CLOUDY    72  68  85 S9        29.81S
DE KALB*       CLOUDY    72  68  88 S10       29.84R
$$

ILZ005-006-012>014-019>023-280300-
NORTHEAST ILLINOIS

CITY           SKY/WX    TMP DP  RH WIND       PRES   REMARKS
CHICAGO-OHARE  LGT RAIN  75  65  70 S25G38    29.85R
CHICAGO-MIDWAY TSTM      71  65  81 SW14G24   29.86R
AURORA         CLOUDY    74  66  76 S20G28    29.83S
LANSING*       LGT RAIN  70  66  85 S12       29.88S
JOLIET*        LGT RAIN  70  68  93 S8        29.86S
WAUKEGAN       LGT RAIN  66  65  96 SE8       29.83S
DUPAGE AIRPORT LGT RAIN  71  65  81 S20G29    29.83R
KANKAKEE*      CLOUDY    69  67  92 S8        29.89S
WHEELING       CLOUDY    77  64  64 S14       29.84R
MORRIS*        LGT RAIN  70  66  87 S15G21    29.84R
ROMEOVILLE*    LGT RAIN  69  64  85 S17G29    29.86R
NORTHERLY ISL    N/A     70  65  84 S22         N/A
NORTHERLY ISL    N/A     70  65  84 S22         N/A
$$

LMZ740>746-280300-
SOUTHERN LAKE MICHIGAN

STATION/POSITION SKY/WX   TEMP    WIND        PRES    VSBY  WAVE
                          AIR SEA DIR/SP/G                  HT/PER
                          (F)     (DEG/KT/KT) (MB)    (MI)  (FT/S)
SOUTHERN BUOY              56 50  140/ 10/ 12 1010.6F         1
WILMETTE HARBOR            63 55  170/ 16/ 27   N/A           2/ 3
HARRISON CRIB              72     150/ 19/ 19   N/A
BURNHAM HARBOR             70     190/ 13/ 28   N/A
CALUMET HARBOR                    160/  8/ 11 1010.4R
BURNS HARBOR               73     200/ 11/ 19 1012.2R
MICHIGAN CITY              73     150/  7/  9   N/A
MICHIGAN CITY 6N           65 59  200/  6/  8   N/A           0
ST. JOSEPH                 67 62  170/  6/ 14   N/A           1/ 3
$$

ILZ025>027-034>036-040-047-049-050-058-095>099-280300-
WEST-CENTRAL ILLINOIS

CITY           SKY/WX    TMP DP  RH WIND       PRES   REMARKS
QUINCY         HVY RAIN  69  67  93 SE10      29.76S FOG
GALESBURG*     MOCLDY    72  67  84 SE5       29.77F
MACOMB*        CLOUDY    73  69  87 SE10      29.78F
JACKSONVILLE*  CLOUDY    71  67  85 S10       29.80S
PITTSFIELD*    CLOUDY    72  68  88 S13       29.78F
$$

ILZ028>032-037-038-041>044-048-051>054-059>061-280300-
CENTRAL ILLINOIS

CITY           SKY/WX    TMP DP  RH WIND       PRES   REMARKS
PONTIAC        LGT RAIN  71  68  92 S16G22    29.85S
BLOOMINGTON    CLOUDY    70  70 100 S20       29.86S
DECATUR        CLOUDY    69  65  86 S14       29.86F
PEORIA         CLOUDY    74  66  76 S17G24    29.80S
LACON*         CLOUDY    73  65  78 S12G22    29.80R
LINCOLN*       MOCLDY    71  68  91 S10G18    29.83S
SPRINGFIELD    CLOUDY    72  68  87 S16       29.82S
TAYLORVILLE    CLOUDY    69  66  92 S14G20    29.85R
$$

ILZ033-039-045-046-055>057-062-063-280300-
EAST-CENTRAL ILLINOIS

CITY           SKY/WX    TMP DP  RH WIND       PRES   REMARKS
CHAMPAIGN      CLOUDY    68  65  90 S14       29.89F
RANTOUL*       PTCLDY    71  67  89 S16G23    29.88F
MATTOON        CLOUDY    68  65  90 S8        29.89F
PARIS*         CLOUDY    68  67  95 SW3       29.92F
$$

ILZ079-100>102-280300-
SOUTHWEST ILLINOIS

CITY           SKY/WX    TMP DP  RH WIND       PRES   REMARKS
ALTON          CLOUDY    70  66  88 S12       29.84R
BELLEVILLE     CLOUDY    70  70 100 E6        29.83S
CAHOKIA*       CLOUDY    72  67  84 S12       29.82S
SPARTA*        CLOUDY    69  68  96 SE8       29.86F
$$

ILZ064>066-069>071-074>076-080>082-084>086-088>090-092>094-280300-
SOUTH-CENTRAL ILLINOIS

CITY           SKY/WX    TMP DP  RH WIND       PRES   REMARKS
CARBONDALE     MOCLDY    69  67  93 SE6       29.87F
CAIRO*         CLOUDY    73  67  81 SE7       29.85F
EFFINGHAM*     CLOUDY    68  68 100 E5        29.91S
MARION         CLOUDY    72  70  94 SE3       29.89S
MT. VERNON     CLOUDY    70  64  83 CALM      29.90R
CENTRALIA*     CLOUDY    69  69  98 SE7       29.87S
SALEM*         CLOUDY    70  67  90 SE3       29.88S
METROPOLIS*    CLOUDY    76  68  77 SE5       29.88F
$$

ILZ067-068-072-073-078-083-087-091-280300-
SOUTHEAST ILLINOIS

CITY           SKY/WX    TMP DP  RH WIND       PRES   REMARKS
LAWRENCEVILLE  PTCLDY    77  64  64 S9        29.91S
FLORA*         CLOUDY    70  68  95 SE5       29.90R
FAIRFIELD*     CLOUDY    69  68  97 CALM      29.89R
HARRISBURG*    CLOUDY    73  68  83 SE5       29.89S
ROBINSON*      MOCLDY    72  68  88 CALM      29.92S
CARMI*         CLOUDY    74  66  77 S8        29.90R
$$

ABBREVIATIONS USED IN REMARKS
   TC - TEMPERATURE IN CELSIUS
  WCI - WIND CHILL INDEX
   HX - HEAT INDEX
  VSB - VISIBILITY
$$




USA.gov is the U.S. government's official web portal to all federal, state and local government web resources and services.